| time (UTC) | temp C | wind direction | speed KPH | gust KPH | rain 1hr cm | rain 24hr cm | rain mn cm | humidity % | barometer mb |
| 20260902214922 | 35 | 161 | 8.0 | 11.3 | 0.00 | 0.00 | 0.00 | 77 | 1017.6 |
| 20260902214420 | 35 | 161 | 8.0 | 11.3 | 0.00 | 0.00 | 0.00 | 77 | 1017.6 |
| 20260902213915 | 35 | 134 | 8.0 | 8.0 | 0.00 | 0.00 | 0.00 | 77 | 1017.6 |
| 20260902213412 | 36 | 123 | 3.2 | 4.8 | 0.00 | 0.00 | 0.00 | 77 | 1017.7 |
| 20260902212910 | 36 | 180 | 4.8 | 6.4 | 0.00 | 0.00 | 0.00 | 77 | 1017.7 |
| 20260902212406 | 35 | 180 | 0.0 | 4.8 | 0.00 | 0.00 | 0.00 | 77 | 1017.9 |
| 20260902211903 | 35 | 225 | 6.4 | 9.7 | 0.00 | 0.00 | 0.00 | 77 | 1017.8 |
| 20260902211358 | 35 | 137 | 8.0 | 9.7 | 0.00 | 0.00 | 0.00 | 77 | 1017.8 |
| 20260902210853 | 35 | 213 | 4.8 | 9.7 | 0.00 | 0.00 | 0.00 | 77 | 1018.0 |
| 20260902210352 | 35 | 196 | 4.8 | 6.4 | 0.00 | 0.00 | 0.00 | 77 | 1018.0 |
| 20260902205851 | 34 | 200 | 8.0 | 11.3 | 0.00 | 0.00 | 0.00 | 77 | 1018.0 |
| 20260902205345 | 35 | 202 | 11.3 | 11.3 | 0.00 | 0.00 | 0.00 | 77 | 1018.1 |
| 20260902204841 | 35 | 191 | 6.4 | 12.9 | 0.00 | 0.00 | 0.00 | 77 | 1018.1 |
| 20260902204336 | 35 | 186 | 1.6 | 8.0 | 0.00 | 0.00 | 0.00 | 77 | 1018.1 |
| 20260902203832 | 35 | 214 | 4.8 | 6.4 | 0.00 | 0.00 | 0.00 | 77 | 1018.2 |
| 20260902203327 | 35 | 156 | 4.8 | 6.4 | 0.00 | 0.00 | 0.00 | 77 | 1018.2 |
| 20260902202826 | 35 | 251 | 8.0 | 8.0 | 0.00 | 0.00 | 0.00 | 77 | 1018.5 |
| 20260902202322 | 34 | 270 | 3.2 | 6.4 | 0.00 | 0.00 | 0.00 | 77 | 1018.4 |
| 20260902201818 | 34 | 236 | 3.2 | 6.4 | 0.00 | 0.00 | 0.00 | 77 | 1018.7 |
| 20260902201313 | 35 | 220 | 4.8 | 4.8 | 0.00 | 0.00 | 0.00 | 77 | 1018.5 |
| 20260902200808 | 35 | 217 | 6.4 | 8.0 | 0.00 | 0.00 | 0.00 | 77 | 1018.7 |
| 20260902200303 | 35 | 147 | 0.0 | 6.4 | 0.00 | 0.00 | 0.00 | 77 | 1018.7 |
| 20260902195759 | 35 | 207 | 6.4 | 8.0 | 0.00 | 0.00 | 0.00 | 77 | 1018.8 |
| 20260902195257 | 35 | 235 | 8.0 | 16.1 | 0.00 | 0.00 | 0.00 | 77 | 1018.7 |
| 20260902194752 | 35 | 124 | 3.2 | 8.0 | 0.00 | 0.00 | 0.00 | 77 | 1018.8 |
| 20260902194247 | 35 | 248 | 6.4 | 14.5 | 0.00 | 0.00 | 0.00 | 77 | 1019.1 |
| 20260902193743 | 35 | 213 | 3.2 | 11.3 | 0.00 | 0.00 | 0.00 | 77 | 1019.1 |
| 20260902193238 | 35 | 130 | 8.0 | 9.7 | 0.00 | 0.00 | 0.00 | 77 | 1019.2 |
| 20260902192737 | 35 | 102 | 4.8 | 12.9 | 0.00 | 0.00 | 0.00 | 77 | 1019.3 |
| 20260902192236 | 35 | 230 | 14.5 | 17.7 | 0.00 | 0.00 | 0.00 | 77 | 1019.3 |
| 20260902191731 | 35 | 205 | 6.4 | 8.0 | 0.00 | 0.00 | 0.00 | 77 | 1019.2 |
| 20260902191225 | 35 | 219 | 8.0 | 9.7 | 0.00 | 0.00 | 0.00 | 77 | 1019.5 |
| 20260902190721 | 35 | 246 | 9.7 | 17.7 | 0.00 | 0.00 | 0.00 | 77 | 1019.6 |
| 20260902190221 | 34 | 180 | 3.2 | 9.7 | 0.00 | 0.00 | 0.00 | 77 | 1019.5 |
| 20260902185717 | 34 | 156 | 9.7 | 24.1 | 0.00 | 0.00 | 0.00 | 77 | 1019.6 |
| 20260902185213 | 35 | 197 | 4.8 | 11.3 | 0.00 | 0.00 | 0.00 | 77 | 1019.6 |
| 20260902184713 | 35 | 190 | 4.8 | 4.8 | 0.00 | 0.00 | 0.00 | 77 | 1019.8 |
| 20260902184208 | 35 | 218 | 16.1 | 16.1 | 0.00 | 0.00 | 0.00 | 77 | 1020.0 |
| 20260902183704 | 35 | 197 | 3.2 | 8.0 | 0.00 | 0.00 | 0.00 | 77 | 1019.9 |
| 20260902183200 | 35 | 277 | 6.4 | 8.0 | 0.00 | 0.00 | 0.00 | 77 | 1019.9 |
| 20260902182656 | 33 | 180 | 0.0 | 11.3 | 0.00 | 0.00 | 0.00 | 77 | 1019.8 |
| 20260902182152 | 34 | 273 | 6.4 | 8.0 | 0.00 | 0.00 | 0.00 | 77 | 1020.2 |
| 20260902181648 | 34 | 283 | 4.8 | 11.3 | 0.00 | 0.00 | 0.00 | 77 | 1020.2 |
| 20260902181148 | 34 | 236 | 8.0 | 14.5 | 0.00 | 0.00 | 0.00 | 77 | 1020.1 |
| 20260902180642 | 34 | 227 | 4.8 | 6.4 | 0.00 | 0.00 | 0.00 | 77 | 1020.2 |
| 20260902180138 | 33 | 194 | 1.6 | 8.0 | 0.00 | 0.00 | 0.00 | 77 | 1020.2 |
| 20260902175637 | 33 | 241 | 4.8 | 17.7 | 0.00 | 0.00 | 0.00 | 77 | 1020.5 |
| 20260902175133 | 33 | 219 | 4.8 | 12.9 | 0.00 | 0.00 | 0.00 | 77 | 1020.4 |
| 20260902174630 | 33 | 210 | 6.4 | 11.3 | 0.00 | 0.00 | 0.00 | 77 | 1020.5 |
| 20260902174125 | 33 | 260 | 14.5 | 19.3 | 0.00 | 0.00 | 0.00 | 77 | 1020.8 |
| 20260902173620 | 33 | 274 | 4.8 | 14.5 | 0.00 | 0.00 | 0.00 | 77 | 1020.6 |
| 20260902173115 | 33 | 250 | 9.7 | 12.9 | 0.00 | 0.00 | 0.00 | 77 | 1021.0 |
| 20260902172615 | 33 | 212 | 3.2 | 14.5 | 0.00 | 0.00 | 0.00 | 77 | 1020.8 |
| 20260902172109 | 33 | 203 | 6.4 | 19.3 | 0.00 | 0.00 | 0.00 | 77 | 1020.8 |
| 20260902171605 | 33 | 151 | 4.8 | 12.9 | 0.00 | 0.00 | 0.00 | 77 | 1020.8 |
| 20260902171100 | 32 | 241 | 9.7 | 17.7 | 0.00 | 0.00 | 0.00 | 77 | 1020.9 |
| 20260902170555 | 33 | 190 | 8.0 | 9.7 | 0.00 | 0.00 | 0.00 | 77 | 1021.0 |
| 20260902170051 | 32 | 248 | 11.3 | 16.1 | 0.00 | 0.00 | 0.00 | 77 | 1020.9 |
| 20260902165551 | 33 | 215 | 14.5 | 17.7 | 0.00 | 0.00 | 0.00 | 77 | 1021.2 |
| 20260902165046 | 32 | 274 | 9.7 | 17.7 | 0.00 | 0.00 | 0.00 | 76 | 1021.1 |
| 20260902164541 | 32 | 247 | 12.9 | 17.7 | 0.00 | 0.00 | 0.00 | 76 | 1021.2 |
| 20260902164039 | 32 | 243 | 11.3 | 17.7 | 0.00 | 0.00 | 0.00 | 76 | 1021.3 |
| 20260902163536 | 32 | 258 | 17.7 | 20.9 | 0.00 | 0.00 | 0.00 | 76 | 1021.2 |
| 20260902163033 | 32 | 227 | 11.3 | 22.5 | 0.00 | 0.00 | 0.00 | 76 | 1021.1 |
| 20260902162527 | 32 | 252 | 11.3 | 14.5 | 0.00 | 0.00 | 0.00 | 76 | 1021.4 |
| 20260902162023 | 33 | 222 | 8.0 | 12.9 | 0.00 | 0.00 | 0.00 | 77 | 1021.3 |
| 20260902161517 | 32 | 205 | 9.7 | 19.3 | 0.00 | 0.00 | 0.00 | 76 | 1021.4 |
| 20260902161013 | 32 | 195 | 4.8 | 8.0 | 0.00 | 0.00 | 0.00 | 76 | 1021.5 |
| 20260902160509 | 32 | 203 | 8.0 | 16.1 | 0.00 | 0.00 | 0.00 | 76 | 1021.3 |
| 20260902160010 | 32 | 216 | 9.7 | 20.9 | 0.00 | 0.00 | 0.00 | 76 | 1021.5 |
| 20260902155502 | 32 | 194 | 8.0 | 17.7 | 0.00 | 0.00 | 0.00 | 77 | 1021.6 |
| 20260902155001 | 32 | 198 | 8.0 | 16.1 | 0.00 | 0.00 | 0.00 | 76 | 1021.2 |
| 20260902154456 | 32 | 226 | 6.4 | 12.9 | 0.00 | 0.00 | 0.00 | 76 | 1021.3 |
| 20260902153951 | 32 | 229 | 8.0 | 9.7 | 0.00 | 0.00 | 0.00 | 76 | 1021.6 |
| 20260902153450 | 32 | 274 | 11.3 | 14.5 | 0.00 | 0.00 | 0.00 | 76 | 1021.6 |
| 20260902152945 | 32 | 246 | 3.2 | 8.0 | 0.00 | 0.00 | 0.00 | 76 | 1021.6 |
| 20260902152442 | 32 | 201 | 16.1 | 16.1 | 0.00 | 0.00 | 0.00 | 76 | 1021.5 |
| 20260902151937 | 32 | 252 | 3.2 | 11.3 | 0.00 | 0.00 | 0.00 | 76 | 1021.3 |
| 20260902151433 | 32 | 252 | 3.2 | 11.3 | 0.00 | 0.00 | 0.00 | 76 | 1021.3 |
| 20260902150926 | 31 | 210 | 8.0 | 11.3 | 0.00 | 0.00 | 0.00 | 76 | 1021.4 |
| 20260902150423 | 31 | 210 | 8.0 | 11.3 | 0.00 | 0.00 | 0.00 | 76 | 1021.5 |
| 20260902145922 | 31 | 210 | 8.0 | 11.3 | 0.00 | 0.00 | 0.00 | 76 | 1021.4 |
| 20260902145418 | -17 | 0.0 | 0.0 | 0.00 | 0.00 | 0.00 | 1021.4 | ||
| 20260902144913 | -17 | 0.0 | 0.0 | 0.00 | 0.00 | 0.00 | 1021.6 | ||
| 20260902144409 | -17 | 0.0 | 0.0 | 0.00 | 0.00 | 0.00 | 1021.7 | ||
| 20260902143903 | -17 | 0.0 | 0.0 | 0.00 | 0.00 | 0.00 | 1021.6 | ||
| 20260902143358 | -17 | 0.0 | 0.0 | 0.00 | 0.00 | 0.00 | 1021.4 | ||
| 20260902142853 | -17 | 0.0 | 0.0 | 0.00 | 0.00 | 0.00 | 1021.3 | ||
| 20260902142349 | -17 | 0.0 | 0.0 | 0.00 | 0.00 | 0.00 | 1021.3 | ||
| 20260902141844 | -17 | 0.0 | 0.0 | 0.00 | 0.00 | 0.00 | 1021.3 | ||
| 20260902141340 | -17 | 0.0 | 0.0 | 0.00 | 0.00 | 0.00 | 1021.2 | ||
| 20260902140839 | -17 | 0.0 | 0.0 | 0.00 | 0.00 | 0.00 | 1021.2 | ||
| 20260902140334 | -17 | 0.0 | 0.0 | 0.00 | 0.00 | 0.00 | 1021.6 | ||
| 20260902135833 | -17 | 0.0 | 0.0 | 0.00 | 0.00 | 0.00 | 1021.6 | ||
| 20260902135330 | -17 | 0.0 | 0.0 | 0.00 | 0.00 | 0.00 | 1021.5 | ||
| 20260902134828 | -17 | 0.0 | 0.0 | 0.00 | 0.00 | 0.00 | 1021.5 | ||
| 20260902134324 | -17 | 0.0 | 0.0 | 0.00 | 0.00 | 0.00 | 1021.5 | ||
| 20260902133820 | -17 | 0.0 | 0.0 | 0.00 | 0.00 | 0.00 | 1021.4 | ||
| 20260902133319 | -17 | 0.0 | 0.0 | 0.00 | 0.00 | 0.00 | 1021.6 | ||
| 20260902132814 | -17 | 0.0 | 0.0 | 0.00 | 0.00 | 0.00 | 1021.6 | ||
| 20260902132310 | -17 | 0.0 | 0.0 | 0.00 | 0.00 | 0.00 | 1021.5 | ||
| 20260902131805 | -17 | 0.0 | 0.0 | 0.00 | 0.00 | 0.00 | 1021.5 | ||
| 20260902131302 | -17 | 0.0 | 0.0 | 0.00 | 0.00 | 0.00 | 1021.5 | ||
| 20260902130801 | -17 | 0.0 | 0.0 | 0.00 | 0.00 | 0.00 | 1021.2 | ||
| 20260902130257 | -17 | 0.0 | 0.0 | 0.00 | 0.00 | 0.00 | 1021.5 | ||
| 20260902125752 | -17 | 0.0 | 0.0 | 0.00 | 0.00 | 0.00 | 1021.4 | ||
| 20260902125248 | -17 | 0.0 | 0.0 | 0.00 | 0.00 | 0.00 | 1021.5 | ||
| 20260902124744 | -17 | 0.0 | 0.0 | 0.00 | 0.00 | 0.00 | 1021.3 | ||
| 20260902124239 | -17 | 0.0 | 0.0 | 0.00 | 0.00 | 0.00 | 1021.4 | ||
| 20260902123734 | -17 | 0.0 | 0.0 | 0.00 | 0.00 | 0.00 | 1021.4 | ||
| 20260902123231 | -17 | 0.0 | 0.0 | 0.00 | 0.00 | 0.00 | 1021.5 | ||
| 20260902122729 | -17 | 0.0 | 0.0 | 0.00 | 0.00 | 0.00 | 1021.2 | ||
| 20260902122220 | -17 | 0.0 | 0.0 | 0.00 | 0.00 | 0.00 | 1021.3 | ||
| 20260902121720 | -17 | 0.0 | 0.0 | 0.00 | 0.00 | 0.00 | 1021.1 | ||
| 20260902121215 | -17 | 0.0 | 0.0 | 0.00 | 0.00 | 0.00 | 1021.2 | ||
| 20260902120710 | -17 | 0.0 | 0.0 | 0.00 | 0.00 | 0.00 | 1021.1 | ||
| 20260902120206 | -17 | 0.0 | 0.0 | 0.00 | 0.00 | 0.00 | 1021.3 | ||
| 20260902115701 | -17 | 0.0 | 0.0 | 0.00 | 0.00 | 0.00 | 1021.1 | ||
| 20260902115157 | -17 | 0.0 | 0.0 | 0.00 | 0.00 | 0.00 | 1021.0 | ||
| 20260902114653 | -17 | 0.0 | 0.0 | 0.00 | 0.00 | 0.00 | 1021.1 | ||
| 20260902114148 | -17 | 0.0 | 0.0 | 0.00 | 0.00 | 0.00 | 1020.9 | ||
| 20260902113643 | -17 | 0.0 | 0.0 | 0.00 | 0.00 | 0.00 | 1020.8 | ||
| 20260902113138 | -17 | 0.0 | 0.0 | 0.00 | 0.00 | 0.00 | 1020.8 | ||
| 20260902112633 | -17 | 0.0 | 0.0 | 0.00 | 0.00 | 0.00 | 1020.8 | ||
| 20260902112130 | -17 | 0.0 | 0.0 | 0.00 | 0.00 | 0.00 | 1020.6 | ||
| 20260902111625 | -17 | 0.0 | 0.0 | 0.00 | 0.00 | 0.00 | 1020.8 | ||
| 20260902111121 | -17 | 0.0 | 0.0 | 0.00 | 0.00 | 0.00 | 1020.4 | ||
| 20260902110617 | -17 | 0.0 | 0.0 | 0.00 | 0.00 | 0.00 | 1020.6 | ||
| 20260902110113 | -17 | 0.0 | 0.0 | 0.00 | 0.00 | 0.00 | 1020.6 | ||
| 20260902105612 | -17 | 0.0 | 0.0 | 0.00 | 0.00 | 0.00 | 1020.6 | ||
| 20260902105107 | -17 | 0.0 | 0.0 | 0.00 | 0.00 | 0.00 | 1020.6 | ||
| 20260902104603 | -17 | 0.0 | 0.0 | 0.00 | 0.00 | 0.00 | 1020.3 | ||
| 20260902104103 | -17 | 0.0 | 0.0 | 0.00 | 0.00 | 0.00 | 1020.5 | ||
| 20260902103557 | -17 | 0.0 | 0.0 | 0.00 | 0.00 | 0.00 | 1020.4 | ||
| 20260902103053 | -17 | 0.0 | 0.0 | 0.00 | 0.00 | 0.00 | 1020.7 | ||
| 20260902102549 | -17 | 0.0 | 0.0 | 0.00 | 0.00 | 0.00 | 1020.5 | ||
| 20260902102046 | -17 | 0.0 | 0.0 | 0.00 | 0.00 | 0.00 | 1020.4 | ||
| 20260902101541 | -17 | 0.0 | 0.0 | 0.00 | 0.00 | 0.00 | 1020.5 | ||
| 20260902101040 | -17 | 0.0 | 0.0 | 0.00 | 0.00 | 0.00 | 1020.5 | ||
| 20260902100535 | -17 | 0.0 | 0.0 | 0.00 | 0.00 | 0.00 | 1020.5 | ||
| 20260902100035 | -17 | 0.0 | 0.0 | 0.00 | 0.00 | 0.00 | 1020.1 | ||
| 20260902095534 | -17 | 0.0 | 0.0 | 0.00 | 0.00 | 0.00 | 1020.1 | ||
| 20260902095033 | -17 | 0.0 | 0.0 | 0.00 | 0.00 | 0.00 | 1020.3 | ||
| 20260902094529 | -17 | 0.0 | 0.0 | 0.00 | 0.00 | 0.00 | 1020.4 | ||
| 20260902094025 | -17 | 0.0 | 0.0 | 0.00 | 0.00 | 0.00 | 1020.2 | ||
| 20260902093525 | -17 | 0.0 | 0.0 | 0.00 | 0.00 | 0.00 | 1020.5 | ||
| 20260902093019 | -17 | 0.0 | 0.0 | 0.00 | 0.00 | 0.00 | 1020.3 | ||
| 20260902092514 | -17 | 0.0 | 0.0 | 0.00 | 0.00 | 0.00 | 1020.3 | ||
| 20260902092009 | -17 | 0.0 | 0.0 | 0.00 | 0.00 | 0.00 | 1020.2 | ||
| 20260902091504 | -17 | 0.0 | 0.0 | 0.00 | 0.00 | 0.00 | 1020.2 | ||
| 20260902091000 | -17 | 0.0 | 0.0 | 0.00 | 0.00 | 0.00 | 1020.1 | ||
| 20260902090455 | -17 | 0.0 | 0.0 | 0.00 | 0.00 | 0.00 | 1020.3 | ||
| 20260902085954 | -17 | 0.0 | 0.0 | 0.00 | 0.00 | 0.00 | 1020.1 | ||
| 20260902085449 | -17 | 0.0 | 0.0 | 0.00 | 0.00 | 0.00 | 1020.1 | ||
| 20260902084945 | -17 | 0.0 | 0.0 | 0.00 | 0.00 | 0.00 | 1020.1 | ||
| 20260902084441 | -17 | 0.0 | 0.0 | 0.00 | 0.00 | 0.00 | 1020.2 | ||
| 20260902083937 | -17 | 0.0 | 0.0 | 0.00 | 0.00 | 0.00 | 1020.1 | ||
| 20260902083436 | -17 | 0.0 | 0.0 | 0.00 | 0.00 | 0.00 | 1020.3 | ||
| 20260902082931 | -17 | 0.0 | 0.0 | 0.00 | 0.00 | 0.00 | 1020.2 | ||
| 20260902082427 | -17 | 0.0 | 0.0 | 0.00 | 0.00 | 0.00 | 1020.2 | ||
| 20260902081923 | -17 | 0.0 | 0.0 | 0.00 | 0.00 | 0.00 | 1020.1 | ||
| 20260902081420 | -17 | 0.0 | 0.0 | 0.00 | 0.00 | 0.00 | 1020.0 | ||
| 20260902080914 | -17 | 0.0 | 0.0 | 0.00 | 0.00 | 0.00 | 1020.2 | ||
| 20260902080410 | -17 | 0.0 | 0.0 | 0.00 | 0.00 | 0.00 | 1020.1 | ||
| 20260902075909 | -17 | 0.0 | 0.0 | 0.00 | 0.00 | 0.00 | 1020.0 | ||
| 20260902075406 | -17 | 0.0 | 0.0 | 0.00 | 0.00 | 0.00 | 1020.2 | ||
| 20260902074901 | -17 | 0.0 | 0.0 | 0.00 | 0.00 | 0.00 | 1020.3 | ||
| 20260902074357 | -17 | 0.0 | 0.0 | 0.00 | 0.00 | 0.00 | 1020.4 | ||
| 20260902073851 | -17 | 0.0 | 0.0 | 0.00 | 0.00 | 0.00 | 1020.4 | ||
| 20260902073348 | -17 | 0.0 | 0.0 | 0.00 | 0.00 | 0.00 | 1020.3 | ||
| 20260902072843 | -17 | 0.0 | 0.0 | 0.00 | 0.00 | 0.00 | 1020.2 | ||
| 20260902072339 | -17 | 0.0 | 0.0 | 0.00 | 0.00 | 0.00 | 1020.2 | ||
| 20260902071835 | -17 | 0.0 | 0.0 | 0.00 | 0.00 | 0.00 | 1020.2 | ||
| 20260902071329 | -17 | 0.0 | 0.0 | 0.00 | 0.00 | 0.00 | 1020.3 | ||
| 20260902070826 | -17 | 0.0 | 0.0 | 0.00 | 0.00 | 0.00 | 1020.3 | ||
| 20260902070326 | -17 | 0.0 | 0.0 | 0.00 | 0.00 | 0.00 | 1020.7 | ||
| 20260902065825 | -17 | 0.0 | 0.0 | 0.00 | 0.00 | 0.00 | 1020.4 | ||
| 20260902065320 | -17 | 0.0 | 0.0 | 0.00 | 0.00 | 0.00 | 1020.3 | ||
| 20260902064815 | -17 | 0.0 | 0.0 | 0.00 | 0.00 | 0.00 | 1020.5 | ||
| 20260902064312 | -17 | 0.0 | 0.0 | 0.00 | 0.00 | 0.00 | 1020.4 | ||
| 20260902063807 | -17 | 0.0 | 0.0 | 0.00 | 0.00 | 0.00 | 1020.3 | ||
| 20260902063307 | -17 | 0.0 | 0.0 | 0.00 | 0.00 | 0.00 | 1020.2 | ||
| 20260902062801 | -17 | 0.0 | 0.0 | 0.00 | 0.00 | 0.00 | 1020.2 | ||
| 20260902062255 | -17 | 0.0 | 0.0 | 0.00 | 0.00 | 0.00 | 1020.5 | ||
| 20260902061755 | -17 | 0.0 | 0.0 | 0.00 | 0.00 | 0.00 | 1020.4 | ||
| 20260902061250 | -17 | 0.0 | 0.0 | 0.00 | 0.00 | 0.00 | 1020.5 | ||
| 20260902060747 | -17 | 0.0 | 0.0 | 0.00 | 0.00 | 0.00 | 1020.5 | ||
| 20260902060237 | -17 | 0.0 | 0.0 | 0.00 | 0.00 | 0.00 | 1020.3 | ||
| 20260902055732 | -17 | 0.0 | 0.0 | 0.00 | 0.00 | 0.00 | 1020.3 | ||
| 20260902055229 | -17 | 0.0 | 0.0 | 0.00 | 0.00 | 0.00 | 1020.3 | ||
| 20260902054724 | -17 | 0.0 | 0.0 | 0.00 | 0.00 | 0.00 | 1020.3 | ||
| 20260902054219 | -17 | 0.0 | 0.0 | 0.00 | 0.00 | 0.00 | 1020.3 | ||
| 20260902053714 | -17 | 0.0 | 0.0 | 0.00 | 0.00 | 0.00 | 1020.2 | ||
| 20260902053214 | -17 | 0.0 | 0.0 | 0.00 | 0.00 | 0.00 | 1020.3 | ||
| 20260902052713 | -17 | 0.0 | 0.0 | 0.00 | 0.00 | 0.00 | 1020.3 | ||
| 20260902052209 | -17 | 0.0 | 0.0 | 0.00 | 0.00 | 0.00 | 1020.0 | ||
| 20260902051708 | -17 | 0.0 | 0.0 | 0.00 | 0.00 | 0.00 | 1020.1 | ||
| 20260902051203 | -17 | 0.0 | 0.0 | 0.00 | 0.00 | 0.00 | 1020.0 | ||
| 20260902050657 | -17 | 0.0 | 0.0 | 0.00 | 0.00 | 0.00 | 1020.2 | ||
| 20260902050153 | -17 | 0.0 | 0.0 | 0.00 | 0.00 | 0.00 | 1020.1 | ||
| 20260902045647 | -17 | 0.0 | 0.0 | 0.00 | 0.00 | 0.00 | 1019.9 | ||
| 20260902045143 | -17 | 0.0 | 0.0 | 0.00 | 0.00 | 0.00 | 1019.9 | ||
| 20260902044638 | -17 | 0.0 | 0.0 | 0.00 | 0.00 | 0.00 | 1019.9 | ||
| 20260902044134 | -17 | 0.0 | 0.0 | 0.00 | 0.00 | 0.00 | 1020.0 | ||
| 20260902043629 | -17 | 0.0 | 0.0 | 0.00 | 0.00 | 0.00 | 1019.9 | ||
| 20260902043124 | -17 | 0.0 | 0.0 | 0.00 | 0.00 | 0.00 | 1019.8 | ||
| 20260902042623 | -17 | 0.0 | 0.0 | 0.00 | 0.00 | 0.00 | 1019.8 | ||
| 20260902042119 | -17 | 0.0 | 0.0 | 0.00 | 0.00 | 0.00 | 1020.0 | ||
| 20260902041619 | -17 | 0.0 | 0.0 | 0.00 | 0.00 | 0.00 | 1019.7 | ||
| 20260902041113 | -17 | 0.0 | 0.0 | 0.00 | 0.00 | 0.00 | 1019.7 | ||
| 20260902040608 | -17 | 0.0 | 0.0 | 0.00 | 0.00 | 0.00 | 1019.4 | ||
| 20260902040103 | -17 | 0.0 | 0.0 | 0.00 | 0.00 | 0.00 | 1019.9 | ||
| 20260902035601 | -17 | 0.0 | 0.0 | 0.00 | 0.00 | 0.00 | 1019.8 | ||
| 20260902035057 | -17 | 0.0 | 0.0 | 0.00 | 0.00 | 0.00 | 1019.8 | ||
| 20260902034556 | -17 | 0.0 | 0.0 | 0.00 | 0.00 | 0.00 | 1019.8 | ||
| 20260902034055 | -17 | 0.0 | 0.0 | 0.00 | 0.00 | 0.00 | 1019.8 | ||
| 20260902033554 | -17 | 0.0 | 0.0 | 0.00 | 0.00 | 0.00 | 1019.8 | ||
| 20260902033050 | -17 | 0.0 | 0.0 | 0.00 | 0.00 | 0.00 | 1019.7 | ||
| 20260902032548 | -17 | 0.0 | 0.0 | 0.00 | 0.00 | 0.00 | 1019.5 | ||
| 20260902032043 | -17 | 0.0 | 0.0 | 0.00 | 0.00 | 0.00 | 1019.7 | ||
| 20260902031538 | 30 | 171 | 4.8 | 8.0 | 0.00 | 0.00 | 0.00 | 76 | 1019.6 |
| 20260902031034 | 30 | 171 | 4.8 | 8.0 | 0.00 | 0.00 | 0.00 | 76 | 1019.5 |
| 20260902030529 | 30 | 171 | 4.8 | 8.0 | 0.00 | 0.00 | 0.00 | 76 | 1019.4 |
| 20260902030028 | 30 | 171 | 4.8 | 8.0 | 0.00 | 0.00 | 0.00 | 76 | 1019.3 |
| 20260902025523 | 30 | 171 | 4.8 | 8.0 | 0.00 | 0.00 | 0.00 | 76 | 1018.9 |
| 20260902025018 | 30 | 171 | 4.8 | 8.0 | 0.00 | 0.00 | 0.00 | 76 | 1019.2 |
| 20260902024514 | 30 | 171 | 4.8 | 8.0 | 0.00 | 0.00 | 0.00 | 76 | 1019.2 |
| 20260902024014 | 30 | 171 | 4.8 | 8.0 | 0.00 | 0.00 | 0.00 | 76 | 1019.3 |
| 20260902023510 | 30 | 171 | 4.8 | 8.0 | 0.00 | 0.00 | 0.00 | 76 | 1019.3 |
| 20260902023009 | 30 | 171 | 4.8 | 8.0 | 0.00 | 0.00 | 0.00 | 76 | 1019.2 |
| 20260902022504 | 30 | 171 | 4.8 | 8.0 | 0.00 | 0.00 | 0.00 | 76 | 1018.9 |
| 20260902022000 | 30 | 171 | 4.8 | 8.0 | 0.00 | 0.00 | 0.00 | 76 | 1018.8 |
| 20260902021455 | -17 | 0.0 | 0.0 | 0.00 | 0.00 | 0.00 | 1018.9 | ||
| 20260902020950 | -17 | 0.0 | 0.0 | 0.00 | 0.00 | 0.00 | 1019.1 | ||
| 20260902020446 | -17 | 0.0 | 0.0 | 0.00 | 0.00 | 0.00 | 1018.9 | ||
| 20260902015941 | -17 | 0.0 | 0.0 | 0.00 | 0.00 | 0.00 | 1018.7 | ||
| 20260902015437 | -17 | 0.0 | 0.0 | 0.00 | 0.00 | 0.00 | 1018.5 | ||
| 20260902014932 | -17 | 0.0 | 0.0 | 0.00 | 0.00 | 0.00 | 1018.7 | ||
| 20260902014429 | -17 | 0.0 | 0.0 | 0.00 | 0.00 | 0.00 | 1018.7 | ||
| 20260902013928 | -17 | 0.0 | 0.0 | 0.00 | 0.00 | 0.00 | 1018.6 | ||
| 20260902013424 | -17 | 0.0 | 0.0 | 0.00 | 0.00 | 0.00 | 1018.5 | ||
| 20260902012919 | -17 | 0.0 | 0.0 | 0.00 | 0.00 | 0.00 | 1018.7 | ||
| 20260902012415 | -17 | 0.0 | 0.0 | 0.00 | 0.00 | 0.00 | 1018.5 | ||
| 20260902011910 | -17 | 0.0 | 0.0 | 0.00 | 0.00 | 0.00 | 1018.5 | ||
| 20260902011405 | -17 | 0.0 | 0.0 | 0.00 | 0.00 | 0.00 | 1018.6 | ||
| 20260902010905 | -17 | 0.0 | 0.0 | 0.00 | 0.00 | 0.00 | 1018.2 | ||
| 20260902010359 | -17 | 0.0 | 0.0 | 0.00 | 0.00 | 0.00 | 1018.4 | ||
| 20260902005859 | -17 | 0.0 | 0.0 | 0.00 | 0.00 | 0.00 | 1018.2 | ||
| 20260902005352 | -17 | 0.0 | 0.0 | 0.00 | 0.00 | 0.00 | 1018.2 | ||
| 20260902004849 | -17 | 0.0 | 0.0 | 0.00 | 0.00 | 0.00 | 1018.3 | ||
| 20260902004348 | -17 | 0.0 | 0.0 | 0.00 | 0.00 | 0.00 | 1018.3 | ||
| 20260902003843 | -17 | 0.0 | 0.0 | 0.00 | 0.00 | 0.00 | 1018.3 | ||
| 20260902003338 | -17 | 0.0 | 0.0 | 0.00 | 0.00 | 0.00 | 1018.1 | ||
| 20260902002834 | -17 | 0.0 | 0.0 | 0.00 | 0.00 | 0.00 | 1018.3 | ||
| 20260902002333 | -17 | 0.0 | 0.0 | 0.00 | 0.00 | 0.00 | 1018.3 | ||
| 20260902001829 | -17 | 0.0 | 0.0 | 0.00 | 0.00 | 0.00 | 1018.2 | ||
| 20260902001324 | -17 | 0.0 | 0.0 | 0.00 | 0.00 | 0.00 | 1018.4 | ||
| 20260902000818 | -17 | 0.0 | 0.0 | 0.00 | 0.00 | 0.00 | 1018.5 | ||
| 20260902000313 | -17 | 0.0 | 0.0 | 0.00 | 0.00 | 0.00 | 1018.4 | ||
| 20260901235808 | -17 | 0.0 | 0.0 | 0.00 | 0.00 | 0.00 | 1018.1 | ||
| 20260901235307 | -17 | 0.0 | 0.0 | 0.00 | 0.00 | 0.00 | 1018.2 | ||
| 20260901234802 | -17 | 0.0 | 0.0 | 0.00 | 0.00 | 0.00 | 1018.2 | ||
| 20260901234257 | -17 | 0.0 | 0.0 | 0.00 | 0.00 | 0.00 | 1018.5 | ||
| 20260901233758 | -17 | 0.0 | 0.0 | 0.00 | 0.00 | 0.00 | 1018.3 | ||
| 20260901233253 | -17 | 0.0 | 0.0 | 0.00 | 0.00 | 0.00 | 1018.5 | ||
| 20260901232748 | -17 | 0.0 | 0.0 | 0.00 | 0.00 | 0.00 | 1018.4 | ||
| 20260901232238 | -17 | 0.0 | 0.0 | 0.00 | 0.00 | 0.00 | 1018.6 | ||
| 20260901231734 | -17 | 0.0 | 0.0 | 0.00 | 0.00 | 0.00 | 1018.5 | ||
| 20260901231230 | -17 | 0.0 | 0.0 | 0.00 | 0.00 | 0.00 | 1018.6 | ||
| 20260901230726 | -17 | 0.0 | 0.0 | 0.00 | 0.00 | 0.00 | 1018.4 | ||
| 20260901230226 | -17 | 0.0 | 0.0 | 0.00 | 0.00 | 0.00 | 1018.6 | ||
| 20260901225721 | -17 | 0.0 | 0.0 | 0.00 | 0.00 | 0.00 | 1018.4 | ||
| 20260901225215 | -17 | 0.0 | 0.0 | 0.00 | 0.00 | 0.00 | 1018.6 | ||
| 20260901224711 | -17 | 0.0 | 0.0 | 0.00 | 0.00 | 0.00 | 1018.5 | ||
| 20260901224207 | -17 | 0.0 | 0.0 | 0.00 | 0.00 | 0.00 | 1018.5 | ||
| 20260901223703 | 36 | 239 | 6.4 | 6.4 | 0.00 | 0.00 | 0.00 | 77 | 1018.5 |
| 20260901223157 | 36 | 239 | 6.4 | 6.4 | 0.00 | 0.00 | 0.00 | 77 | 1018.6 |
| 20260901222654 | 36 | 239 | 6.4 | 6.4 | 0.00 | 0.00 | 0.00 | 77 | 1018.6 |
| 20260901222150 | 36 | 239 | 6.4 | 6.4 | 0.00 | 0.00 | 0.00 | 77 | 1018.5 |
| 20260901221646 | 36 | 239 | 6.4 | 6.4 | 0.00 | 0.00 | 0.00 | 77 | 1018.5 |
| 20260901221141 | 36 | 239 | 6.4 | 6.4 | 0.00 | 0.00 | 0.00 | 77 | 1018.6 |
| 20260901220640 | 36 | 239 | 6.4 | 6.4 | 0.00 | 0.00 | 0.00 | 77 | 1018.6 |
| 20260901220139 | 36 | 239 | 6.4 | 6.4 | 0.00 | 0.00 | 0.00 | 77 | 1018.4 |
| 20260901215638 | 36 | 239 | 6.4 | 6.4 | 0.00 | 0.00 | 0.00 | 77 | 1018.3 |